{"data":{"norad_id":65431,"intl_designator":"2025-192AD","name":"STARLINK-35034","alt_names":[],"object_type":"PAYLOAD","status":"ACTIVE","operator":null,"country":"US","launch_date":"2025-08-31","launch_site_code":"AFETR","launch_vehicle":null,"mission":null,"orbit_class":"UNKNOWN","rcs_meters":null,"size_class":null,"mass_kg":null,"dimensions":null,"purposes":["comms"],"wikipedia_slug":null,"has_3d_model":false,"image_url":null,"decayed_at":null,"tle_current":{"epoch":"2026-09-20T15:47:54.831264Z","epoch_age_seconds":101271,"freshness":"FRESH","line1":"1 65431U 25192AD  26263.65827351  .00007677  00000+0  23826-3 0  9994","line2":"2 65431  53.1618  44.6890 0000559 351.6960   8.4033 15.34379540 59266","mean_motion":15.3437954,"eccentricity":5.59e-5,"inclination_deg":53.1618,"raan_deg":44.689,"arg_perigee_deg":351.696,"mean_anomaly_deg":8.4033,"bstar":0.00023826,"rev_number":5926,"period_min":93.849009483012,"perigee_km":462.38164594576,"apogee_km":463.14645868341,"semimajor_km":6840.9010523146,"source":"CELESTRAK","updated_at":"2026-09-21T09:00:35.607984Z"}}}